Location: Newark
(26.8229°N, 81.7649°W)
Time: 02:27:08
(UTC+00:00)

Hubble Space Telescope - Pass Details

Date: 28 January 2020
Orbit: 536 x 540 km, 28.5° (Epoch: 26 February)

Event Time Altitude Azimuth Distance (km) Brightness Sun altitude
Exits shadow 10:39:03 13° 199° (SSW) 1,564 3.0 -21.3°
Maximum altitude 10:41:32 22° 155° (SSE) 1,188 2.9 -20.8°
Drops below altitude 10° 10:44:45 10° 103° (ESE) 1,776 4.6 -20.1°
Sets 10:47:22 0° 88° (E) 2,669 5.8 -19.5°
